Home > Weather > Ottawa > Past weeks

Flag for Canada Past Weather in Ottawa, Ontario, Canada — Yesterday and Last 2 Weeks

Now
79 °F

Broken clouds.


Feels Like: 79 °F
Forecast: 60 / 82 °F
Wind: 8 mph from Northwest

Location: Ottawa Int'L. Ont.

Current Time: Jul 24, 2016 at 2:33:43 PM

Latest Report: Jul 24, 2016 at 2:00 PM


Visibility: 15 mi

Pressure: 30.01 "Hg

Humidity: 42%

Dew Point: 54 °F

Location of OttawaLocation

Past Weather in Ottawa — Graph

°F

Ottawa Temperature Yesterday

Maximum temperature yesterday: 84 °F (at 1:00 PM)
Minimum temperature yesterday: 66 °F (at 5:00 AM)
Average temperature yesterday: 75 °F

High & Low Weather Summary for the Past Weeks

 TemperatureHumidityPressure
High93 °F (Jul 22, 5:00 PM)100% (Jul 9, 4:00 PM)30.23 "Hg (Jul 9, 4:00 PM)
Low52 °F (Jul 19, 6:00 AM)34% (Jul 22, 5:00 PM)29.64 "Hg (Jul 14, 6:00 PM)
Average71 °F70%29.94 "Hg
* Reported Jul 9 1:00 PM — Jul 24 1:00 PM, Ottawa, Weather by CustomWeather, © 2016

Note: Actual official high and low records may vary slightly from our data, if they occured in-between our weather recording intervals... More about our weather records

Advertising

Ottawa Weather History for the Previous 24 Hours

Scroll right to see more
 ConditionsComfort  
Time TempWeatherWind HumidityBarometerVisibility
1:00 PM
Sun, Jul 24
75 °FPartly sunny.2 mph44%30.03 "Hg15 mi
12:00 PM73 °FBroken clouds.3 mph50%30.05 "Hg15 mi
11:00 AM72 °FPartly sunny.3 mph50%30.06 "Hg15 mi
10:00 AM70 °FPartly sunny.5 mph57%30.06 "Hg15 mi
9:00 AM68 °FPartly sunny.3 mph60%30.06 "Hg15 mi
8:00 AM66 °FBroken clouds.5 mph64%30.06 "Hg15 mi
7:00 AM63 °FPartly sunny.3 mph77%30.05 "Hg15 mi
6:00 AM57 °FPassing clouds.5 mph82%30.03 "Hg15 mi
5:00 AM59 °FPassing clouds.5 mph82%30.02 "Hg15 mi
4:00 AM57 °FClear.6 mph82%30.01 "Hg15 mi
3:00 AM64 °FClear.2 mph68%30.00 "Hg15 mi
2:00 AM64 °FClear.6 mph68%29.99 "Hg15 mi
1:00 AM68 °FClear.8 mph64%29.98 "Hg15 mi
12:00 AM70 °FClear.7 mph64%29.97 "Hg15 mi
11:00 PM
Sat, Jul 23
72 °FClear.9 mph61%29.95 "Hg15 mi
10:00 PM75 °FPassing clouds.13 mph54%29.93 "Hg15 mi
9:00 PM77 °FScattered clouds.13 mph57%29.93 "Hg15 mi
8:00 PM79 °FScattered clouds.12 mph54%29.90 "Hg15 mi
7:00 PM81 °FPassing clouds.14 mph51%29.88 "Hg15 mi
6:00 PM81 °FScattered clouds.9 mph54%29.88 "Hg15 mi
5:00 PM81 °FPassing clouds.13 mph54%29.87 "Hg15 mi
4:00 PM79 °FPartly sunny.16 mph54%29.85 "Hg15 mi
3:00 PM82 °FSprinkles. Broken clouds.20 mph51%29.82 "Hg15 mi
2:48 PM81 °FSprinkles. Partly sunny.17 mph54%29.82 "Hg15 mi
2:00 PM82 °FPartly sunny.17 mph48%29.82 "Hg15 mi
Weather by CustomWeather, © 2016

See weather overviewHow to use our weather pages